Weather Roundup
Issued by NWS Chicago, IL

Home | Current Version | Previous Version | Graphics & Text | Print | Product List | Glossary Off
Versions: 1 2 3 4 5 6 7 8 9 10 11 12 13 14 15 16 17 18 19 20 21 22 23 24 25 26 27 28 29 30 31 32 33 34 35 36 37 38 39 40 41 42 43 44 45 46 47 48 49 50

000
NZUS59 KLOT 240107
HRRLOT

CHICAGO AREA WEATHER ROUNDUP
NATIONAL WEATHER SERVICE CHICAGO/ROMEOVILLE IL
800 PM CDT THU MAR 23 2017

NOTE: "FAIR" INDICATES FEW OR NO CLOUDS BELOW 12,000 FEET WITH NO
SIGNIFICANT WEATHER AND/OR OBSTRUCTIONS TO VISIBILITY.

* THESE STATIONS ARE NOT UNDER NWS QUALITY CONTROL. THEY ALSO MAY NOT
  REPORT WEATHER SUCH AS PRECIPITATION OR FOG.

ILZ005-006-012>014-019>023-240200-
NORTHEAST ILLINOIS

CITY           SKY/WX    TMP DP  RH WIND       PRES   REMARKS
OHARE          TSTM      46  32  58 S18G30    30.04F
MIDWAY         CLOUDY    49  32  52 S14       30.08F THUNDER
AURORA         CLOUDY    47  30  51 SE17      30.03F
LANSING*       TSTM      46  35  65 SE6       30.08F
JOLIET*        CLOUDY    49  32  52 S12       30.07S
WAUKEGAN       TSTM      42  33  70 SE16      29.99F
DUPAGE AIRPORT CLOUDY    45  33  63 SE14G24   30.02F
WHEELING       TSTM      45  34  65 S13       30.08R
KANKAKEE*      CLOUDY    49  28  45 SE15      30.08F
MORRIS*        CLOUDY    46  31  54 SE15G24   30.04F
LEWIS AIRPORT* CLOUDY    46  35  67 S13       30.06F
NORTHERLY ISL    N/A     48  27  44 S15         N/A
$$

WIZ051-052-058>065-066-070>072-240200-
SOUTHEAST WISCONSIN

CITY           SKY/WX    TMP DP  RH WIND       PRES   REMARKS
MILWAUKEE      LGT RAIN  44  29  55 SE14G21   30.03R
KENOSHA*       LGT RAIN  43  31  62 SE15      30.00F
RACINE*        LGT RAIN  41  31  67 S14G23    30.04R
WAUKESHA       RAIN      37  30  75 SW3       30.08R
WEST BEND      RAIN      37  30  75 NW7       30.10R
$$

INZ001>003-010>013-019-020-240200-
NORTHWEST INDIANA

CITY           SKY/WX    TMP DP  RH WIND       PRES   REMARKS
GARY*          CLOUDY    48  30  49 SE8       30.08F
MICHIGAN CITY* NOT AVBL
RENSSELAER*    NOT AVBL
VALPARAISO     CLOUDY    49  32  52 S13       30.11F
$$

LMZ740>746-240200-
SOUTHERN LAKE MICHIGAN

STATION/POSITION TIME  SKY/WX   TEMP WIND        PRES    VSBY
                                AIR  DIR/SP/G
                 (UTC)          (F)  (DEG/KT/KT) (MB)    (MI)
HARRISON CRIB    0040            45  170/ 22/ 22   N/A
BURNHAM HARBOR   0100            45  180/  9/ 19   N/A
CALUMET HARBOR   0030            48  150/ 11/ 20 1018.2F
BURNS HARBOR     0040            48  160/  8/ 20 1018.3F
MICHIGAN CITY    0040            47  140/ 14/ 17   N/A
$$

ABBREVIATIONS USED IN REMARKS
   TC - TEMPERATURE IN CELSIUS
  WCI - WIND CHILL INDEX
   HX - HEAT INDEX
  VSB - VISIBILITY
$$




USA.gov is the U.S. government's official web portal to all federal, state and local government web resources and services.